Regional Weather Roundup
Issued by NWS

Home | Current Version | Previous Version | Graphics & Text | Print | Product List | Glossary On
Versions: 1 2 3 4 5 6 7 8 9 10 11 12 13 14 15 16 17 18 19 20 21 22 23 24 25 26 27 28 29 30 31 32 33 34 35 36 37 38 39 40 41 42 43 44 45 46 47 48 49 50
349
ASUS43 KBIS 230610
RWRND
NORTH DAKOTA REGIONAL WEATHER ROUNDUP
NATIONAL WEATHER SERVICE EASTERN NORTH DAKOTA/GRAND FORKS ND
100 AM CDT TUE MAY 23 2017

  NOTE: "FAIR" INDICATES FEW OR NO CLOUDS BELOW 12,000 FEET WITH NO
  SIGNIFICANT WEATHER AND/OR OBSTRUCTIONS TO VISIBILITY.

NDZ001>003-009>011-017-230700-
...NORTHWEST NORTH DAKOTA...

CITY           SKY/WX    TMP DP  RH WIND       PRES   REMARKS
WILLISTON      FAIR      50  35  56 E3        30.15R
6HR MIN TEMP:  46; 6HR MAX TEMP:  67;

MINOT          CLOUDY    49  38  65 NW7       30.09S
MINOT AFB      FAIR      41  35  77 NW7       30.09S
6HR MIN TEMP:  41; 6HR MAX TEMP:  62;

$$

NDZ018>021-031>035-040>046-230700-
...SOUTHWEST NORTH DAKOTA...

CITY           SKY/WX    TMP DP  RH WIND       PRES   REMARKS
BISMARCK       CLOUDY    52  39  61 N7        30.08R
DICKINSON      CLOUDY    49  34  56 NE8       30.11R
GARRISON         N/A     47  38  71 NW7       30.10R
HETTINGER      CLOUDY    51  36  56 N9        30.12R
$$

NDZ004>008-012>016-024-026-027-054-230700-
...NORTHEAST NORTH DAKOTA...

CITY           SKY/WX    TMP DP  RH WIND       PRES   REMARKS
GRAND FORKS    CLOUDY    49  47  93 N13       29.94R
GRAND FORKS AF CLOUDY    48  45  90 N16       29.95S
DEVILS LAKE    CLOUDY    48  41  76 N16       30.02S
$$

NDZ022-023-025-028>030-036>039-047>053-230700-
...SOUTHEAST NORTH DAKOTA...

CITY           SKY/WX    TMP DP  RH WIND       PRES   REMARKS
JAMESTOWN      LGT RAIN  47  44  90 N15       29.97S
FARGO          CLOUDY    49  47  93 N13       29.91R
WAHPETON       CLOUDY    46  43  87 NW9       29.90S
$$




USA.gov is the U.S. government's official web portal to all federal, state and local government web resources and services.